Location: Hobi?a Gr?di?te
(45.4833°N, 22.7833°E)
Time: 04:54:32
(UTC+00:00)

Cosmos 2251 Rocket - Pass Details

Date: 28 January 2023
Orbit: 764 x 790 km, 74.0° (Epoch: 29 March)

Event Time Altitude Azimuth Distance (km) Brightness Sun altitude
Rises 16:45:56 0° 195° (SSW) 3,251 7.1 -13.5°
Reaches altitude 10° 16:48:18 10° 194° (SSW) 2,331 6.3 -13.9°
Maximum altitude 16:53:36 77° 109° (ESE) 811 3.5 -14.8°
Drops below altitude 10° 16:58:58 10° 24° (NNE) 2,362 5.7 -15.8°
Enters shadow 16:59:54 - 24° (NNE) 2,725 6.0 -15.9°
